Regional Weather Roundup
Issued by NWS

Current Version | Previous Version | Text Only | Print | Product List | Glossary On
Versions: 1 2 3 4 5 6 7 8 9 10 11 12 13 14 15 16 17 18 19 20 21 22 23 24 25 26 27 28 29 30 31 32 33 34 35 36 37 38 39 40 41 42 43 44 45 46 47 48 49 50
000
ASUS42 KTBW 041916
RWRFL
FLORIDA REGIONAL WEATHER ROUNDUP
NATIONAL WEATHER SERVICE TAMPA BAY RUSKIN FL
300 PM EDT MON MAY 04 2015

NOTE: "FAIR" INDICATES FEW OR NO CLOUDS BELOW 12,000 FEET WITH NO
SIGNIFICANT WEATHER AND/OR OBSTRUCTIONS TO VISIBILITY.


FLZ001>010-012>015-112-114-115-042000-
PANHANDLE FLORIDA

CITY           SKY/WX    TMP DP  RH WIND       PRES   REMARKS
PENSACOLA      SUNNY     80  63  55 SE14      30.21F
PENSACOLA NAS  MOSUNNY   79  67  66 SE15      30.22F
MILTON NAS     MOSUNNY   82  55  39 SE12      30.21
CRESTVIEW      PTSUNNY   85  54  34 NE12      30.23F
DUKE FIELD     MOSUNNY   82  50  32 NE5       30.21F
VALPARAISO     MOSUNNY   81  61  51 SE7       30.21F
MARY ESTHER    SUNNY     79  62  55 SE12      30.21F
PANAMA CITY    FAIR      84  48  28 VRB3      30.20F
TYNDALL AFB    MOSUNNY   79  65  60 S13       30.21F
APALACHICOLA   MOSUNNY   82  64  54 SE10      30.23F

STATION/POSITION SKY/WX   TEMP    WIND        PRES    WAVE   SWELL
                          AIR SEA DIR/SP/G            HT/PER HT/PER
                          (F)     (DEG/KT/KT) (MB)    (FT/S) (FT/S)
30.1N   87.6W              74 75  110/ 14/ 16 1022.6F   5/ 8   3/ 8
29.2N   88.2W              75 76  110/ 17/ 21 1022.5F   5/ 5
28.8N   86.0W              75 75  100/ 16/ 17 1022.7F   6/ 7   3/ 7
PANAMA CITY BEAC           74 75  190/  9/ 11 1023.4F
CAPE SAN BLAS    NOT AVBL
TOWER C                    73      70/ 11/ 12 1023.3F
28.5N   84.5W              74 75   80/ 16/ 17 1022.5F   4/ 7   2/ 7

$$
FLZ011-016>038-118-127-128-134-139-239-042000-
NORTH FLORIDA

CITY           SKY/WX    TMP DP  RH WIND       PRES   REMARKS
MARIANNA       SUNNY     83  48  29 NE8G18    30.22F
TALLAHASSEE    PTSUNNY   86  51  29 E13       30.22F
PERRY          PTSUNNY   82  53  37 E5        30.22F
CROSS CITY       N/A     85  57  38 NE10G18   30.20F
LAKE CITY      FAIR      79  61  53 SE14G23   30.24F
GAINESVILLE    PTSUNNY   77  58  51 E10       30.24F
MAYPORT NAS    MOSUNNY   79  64  60 NE14      30.27F
JACKSONVILLE   MOSUNNY   79  56  45 E13G22    30.26F
JAX NAS        PTSUNNY   82  54  37 NE15      30.26F
JAX CRAIG      PTSUNNY   76  56  49 E9        30.27F
JAX CECIL      MOSUNNY   77  57  50 E12G17    30.25F
FERNANDINA BEA FAIR      82  63  51 NE10      30.27F
ST AUGUSTINE   SUNNY     77  60  55 NE15      30.26F

STATION/POSITION SKY/WX   TEMP    WIND        PRES    WAVE   SWELL
                          AIR SEA DIR/SP/G            HT/PER HT/PER
                          (F)     (DEG/KT/KT) (MB)    (FT/S) (FT/S)
SHELL POINT                76     170/  8/  9   N/A
KEATON BEACH               75     260/  9/ 11 1022.9F
CEDAR KEY                  78      90/ 10/ 10 1022.8F
FERNANDINA                 75 73   50/  8/ 13 1025.2F
30.7N   81.3W                 74                N/A     2/13   2/13
MAYPORT                    73 73   60/ 10/ 12 1025.7F
31.4N   80.9W              71 71   80/  8/ 10 1026.6F   2/11   2/11
ST AUGUSTINE               72 72   50/ 11/ 12 1025.2F

$$
FLZ040-043>046-052-053-057-058-063-144-042000-
INTERIOR CENTRAL FLORIDA

CITY           SKY/WX    TMP DP  RH WIND       PRES   REMARKS
OCALA          MOSUNNY   77  59  53 NE7       30.22F
THE VILLAGES     N/A     81  61  50 E9G20     30.11S
LEESBURG       MOSUNNY   83  56  39 E14       30.21F
SANFORD        MOSUNNY   81  57  43 E16G25    30.21F
ORLANDO EXEC   PTSUNNY   80  57  45 E18       30.20F
ORLANDO INTL   PTSUNNY   80  58  46 E18G26    30.20F
KISSIMMEE      PTSUNNY   81  55  41 E18G25    30.20F
WINTER HAVEN   PTSUNNY   83  56  39 E17G26    30.20F
LAKELAND       PTSUNNY   81  57  44 E15G26    30.18F
BARTOW         MOSUNNY   79  55  44 NE18G24   30.19F
OKEECHOBEE     MOSUNNY   79  55  44 NE7G16    30.18F

$$
FLZ041-047-054-059-064-141-147-042000-
EAST CENTRAL FLORIDA

CITY           SKY/WX    TMP DP  RH WIND       PRES   REMARKS
ORMOND BEACH   PTSUNNY   77  63  61 NE15G21   30.24F
DAYTONA BEACH  PTSUNNY   76  61  59 E16       30.24F
DELAND           N/A     77  57  50 E14G21    30.23F
JFK SPACE CTR  MOSUNNY   80  57  45 NE14G20   30.20F
CAPE CANAVERAL MOSUNNY   79  59  50 E14G21    30.20F
PATRICK AFB    MOSUNNY   80  60  50 E16       30.20F
MELBOURNE      MOSUNNY   80  57  45 E17       30.20F
VERO BEACH     MOSUNNY   80  58  46 NE13G21   30.19F
FT PIERCE      PTSUNNY   80  60  50 E15       30.18F
STUART         PTSUNNY   77  59  53 E16G23    30.19F

STATION/POSITION SKY/WX   TEMP    WIND        PRES    WAVE   SWELL
                          AIR SEA DIR/SP/G            HT/PER HT/PER
                          (F)     (DEG/KT/KT) (MB)    (FT/S) (FT/S)
28.5N   80.2W              75 77   70/ 14/ 17 1023.5S
28.9N   78.5W              73 78   60/ 16/ 19 1024.0F
TRIDENT PIER               79 77   50/ 13/ 17 1024.1R
28.4N   80.5W                 76                N/A     3/ 6
27.5N   80.2W                 78                N/A     5/13   3/13

$$
FLZ050-056-061-142-242-148-248-149-249-151-251-155-255-
160-260-042000-
WEST CENTRAL FLORIDA

CITY           SKY/WX    TMP DP  RH WIND       PRES   REMARKS
CRYSTAL RIVER  FAIR      82  55  39 E10G18    30.19F
INVERNESS      MOCLDY   N/A N/A N/A NE8       30.20F HAZE
BROOKSVILLE    PTSUNNY   83  58  42 E16G25    30.18F
CLEARWATER     SUNNY     82  62  50 E12       30.16F
TAMPA INTL     PTSUNNY   81  55  40 E10G21    30.17F
TAMPA EXEC     MOSUNNY   84  57  39 E13G22    30.18F
PLANT CITY     MOSUNNY   82  61  47 E14G21    30.19F
MACDILL AFB    MOSUNNY   83  59  43 E18G25    30.15F
PETER O KNIGHT MOSUNNY   86  59  39 E16G22    30.16F
ST PETERSBURG  SUNNY     81  63  54 E15       30.15F
SARASOTA       PTSUNNY   85  57  38 E16       30.13F
VENICE         FAIR      84  55  37 E18G30    30.14F

STATION/POSITION SKY/WX   TEMP    WIND        PRES    WAVE   SWELL
                          AIR SEA DIR/SP/G            HT/PER HT/PER
                          (F)     (DEG/KT/KT) (MB)    (FT/S) (FT/S)
CEDAR KEY                  78      90/ 10/ 10 1022.8F
28.5N   84.5W              74 75   80/ 16/ 17 1022.5F   4/ 7   2/ 7
27.3N   84.2W                 77                N/A     6/ 7
CLEARWATER BEACH           78 76   60/  7/ 14 1022.0F
MIDDLE TAMPA BAY           77      80/ 18/ 19 1021.9F
VENICE                     82 79   70/ 17/ 23 1020.1F

$$
FLZ066-069-070-075>078-162-262-165-265-042000-
SOUTHWEST FLORIDA AND KEYS

CITY           SKY/WX    TMP DP  RH WIND       PRES   REMARKS
PUNTA GORDA    MOSUNNY   84  54  35 E21G30    30.16F
FT MYERS       MOSUNNY   84  54  35 E20G25    30.13S
SOUTHWEST INTL MOSUNNY   83  53  35 NE24G30   30.14F
NAPLES         PTSUNNY   86  52  30 E15G23    30.12F
MARCO ISLAND   PTCLDY    84  50  30 E12       30.12F
IMMOKALEE      PTCLDY   N/A N/A N/A E13G18    30.15S
MARATHON       CLOUDY    80  64  58 E14       30.11F
KEY WEST NAS   CLOUDY    77  63  61 E22       30.09F
KEY WEST INTL  CLOUDY    77  63  61 E16G24    30.09F

STATION/POSITION SKY/WX   TEMP    WIND        PRES    WAVE   SWELL
                          AIR SEA DIR/SP/G            HT/PER HT/PER
                          (F)     (DEG/KT/KT) (MB)    (FT/S) (FT/S)
VENICE                     82 79   70/ 17/ 23 1020.1F
NAPLES                     81 77   70/ 10/ 13 1020.2S
26.0N   85.6W              77 80   70/ 16/ 19 1020.0F   9/ 8   5/14
DRY TORTUGAS               76      80/ 24/ 27 1018.9F
NW FL BAY                  77     100/ 16/ 20 1020.6
SAND KEY                   76      80/ 26/ 29 1018.5F
SOMBRERO KEY               77      80/ 22/ 23 1019.3F
LONG KEY                   76 75   80/ 14/ 17 1020.6F
MOLASSES REEF              76 79   80/ 17/ 19 1019.6F

$$
FLZ067-068-071>074-168-172>174-042000-
SOUTHEAST FLORIDA

CITY           SKY/WX    TMP DP  RH WIND       PRES   REMARKS
W PALM BEACH   CLOUDY    80  62  54 E18G25    30.17F
FT LAUDER-EXEC CLOUDY    79  64  60 NE16      30.14F
FT LAUDERDALE  CLOUDY    79  65  62 E12G20    30.14S
POMPANO BEACH  CLOUDY    78  62  57 E16       30.15S
PEMBROKE PINES CLOUDY    80  63  55 NE15      30.16F
OPA LOCKA      CLOUDY    79  63  57 E16       30.15S
MIAMI          CLOUDY    79  62  56 NE15G22   30.14S
WEST KENDALL   CLOUDY    79  63  57 E15       30.13F
HOMESTEAD      CLOUDY    78  63  59 NE15      30.13S

STATION/POSITION SKY/WX   TEMP    WIND        PRES    WAVE   SWELL
                          AIR SEA DIR/SP/G            HT/PER HT/PER
                          (F)     (DEG/KT/KT) (MB)    (FT/S) (FT/S)
PORT EVERGLADES            76      70/ 14/ 19 1020.7S
VIRGINIA KEY               76 77   60/ 12/ 17 1020.1F
LAKE WORTH                 75 78   50/ 18/ 21 1021.1F
SETTLEMENT POINT           74      70/ 18/ 20 1021.9F

$$




USA.gov is the U.S. government's official web portal to all federal, state and local government web resources and services.